Regional Weather Roundup
Issued by NWS

Home | Current Version | Previous Version | Text Only | Print | Product List | Glossary Off
Versions: 1 2 3 4 5 6 7 8 9 10 11 12 13 14 15 16 17 18 19 20 21 22 23 24 25 26 27 28 29 30 31 32 33 34 35 36 37 38 39 40 41 42 43 44 45 46 47 48 49 50

000
ASUS43 KIND 221359
RWRIN

WEATHER ROUNDUP FOR INDIANA
NATIONAL WEATHER SERVICE INDIANAPOLIS IN
1000 AM EDT SUN APR 22 2018

NOTE: "FAIR" INDICATES FEW OR NO CLOUDS BELOW 12,000 FEET WITH NO
SIGNIFICANT WEATHER AND/OR OBSTRUCTIONS TO VISIBILITY.

* - STATION DOES NOT REPORT WEATHER SUCH AS PRECIPITATION OR FOG.

+ - STATION NOT QUALITY CONTROLLED BY THE NATIONAL WEATHER SERVICE.
    USE DATA WITH CAUTION...ESPECIALLY DEWPOINT AND RELATIVE
    HUMIDITY OBSERVATIONS.

INZ001>003-010>013-019-020-221500-
NORTHWEST INDIANA

CITY           SKY/WX    TMP DP  RH WIND       PRES   REMARKS
GARY /AIRPORT/ CLOUDY    52  32  46 NE6       30.37S
KNOX *+        FAIR      50  21  32 E9        30.35S
MONTICELLO +   FAIR      48  18  30 NE9       30.32S

$$

LMZ046-743>745-221500-
SOUTHERN LAKE MICHIGAN

STATION/POSITION TIME  TEMP    WIND        PRES    WAVE
                       AIR SEA DIR/SP/G            HT
                 (UTC) (F)     (DEG/KT/KT) (MB)    (FT)
BURNS HARBOR     1340   45      60/  5/  8 1028.8S
MICHIGAN CITY    1330   47      50/  5/  7   N/A

$$

INZ004-005-014>016-021>024-221500-
NORTH CENTRAL INDIANA

CITY           SKY/WX    TMP DP  RH WIND       PRES   REMARKS
GOSHEN         FAIR      49  25  39 E10       30.38R
ROCHESTER +    FAIR      50  18  27 E10       30.36S
SOUTH BEND     FAIR      50  19  29 E9        30.39R
WARSAW +       FAIR      50  27  40 SE8       30.37S

$$

INZ006>009-017-018-025>027-221500-
NORTHEAST INDIANA

CITY           SKY/WX    TMP DP  RH WIND       PRES   REMARKS
FORT WAYNE     CLOUDY    47  27  45 NE10      30.38S

$$

INZ028-029-035-036-043>045-051>053-221500-
WEST CENTRAL INDIANA

CITY           SKY/WX    TMP DP  RH WIND       PRES   REMARKS
LAFAYETTE      FAIR      47  27  45 NE10      30.32R
TERRE HAUTE    FAIR      53  33  46 E10       30.25F

$$

INZ030>032-037>040-046>048-054>057-064-065-221500-
CENTRAL INDIANA

CITY           SKY/WX    TMP DP  RH WIND       PRES   REMARKS
COLUMBUS       PTSUNNY   52 N/A N/A NE8       30.28F
INDIANAPOLIS   CLOUDY    51  27  39 NE12      30.29F
-EAGLE CREEK   FAIR      51  28  41 E7        30.29F
KOKOMO +       FAIR      46  27  47 E10       30.34R
MT COMFORT *+  FAIR      50  36  57 NE9       30.30F
SHELBYVILLE    FAIR      54  29  38 E15       30.28F
ZIONSVILLE +   FAIR      48  27  44 E9        30.31S

$$

INZ033-034-041-042-049-050-058-059-221500-
EAST CENTRAL INDIANA

CITY           SKY/WX    TMP DP  RH WIND       PRES   REMARKS
MUNCIE         FAIR      48  29  47 E9        30.32F
RICHMOND +     FAIR      46  32  57 E9        30.32R

$$

INZ060-061-067>069-081>083-085>088-221500-
SOUTHWEST INDIANA

CITY           SKY/WX    TMP DP  RH WIND       PRES   REMARKS
EVANSVILLE     FAIR      56  34  43 NE9       30.19F
HUNTINGBURG +  FAIR      57  34  41 E8        30.20F

$$

INZ062-063-066-070>080-084-089>092-221500-
SOUTH CENTRAL AND SOUTHEAST INDIANA

CITY           SKY/WX    TMP DP  RH WIND       PRES   REMARKS
BLOOMINGTON    FAIR      55  28  35 E10       30.24F
SEYMOUR +      FAIR      55  32  41 E8        30.26F

$$





USA.gov is the U.S. government's official web portal to all federal, state and local government web resources and services.